SM7CKM-1 Weather Reports


time (UTC)temp
C
wind
direction
speed
KPH
gust
KPH
rain 1hr
cm
rain 24hr
cm
rain mn
cm
humidity
%
barometer
mb
20260506102329 13 80 14.5 22.5 0.00 0.00 0.00 33 1011.9
20260506101229 13 138 11.3 22.5 0.00 0.00 0.00 34 1011.9
20260506100129 13 155 11.3 16.1 0.00 0.00 0.00 35 1011.9
20260506095029 13 157 11.3 16.1 0.00 0.00 0.00 35 1012.1
20260506093929 12 92 14.5 20.9 0.00 0.00 0.00 35 1012.1
20260506092829 12 128 14.5 20.9 0.00 0.00 0.00 34 1012.1
20260506091729 12 76 12.9 27.4 0.00 0.00 0.00 34 1012.2
20260506090629 12 55 12.9 17.7 0.00 0.00 0.00 37 1012.2
20260506085530 12 84 16.1 24.1 0.00 0.00 0.00 35 1012.3
20260506084429 12 117 11.3 16.1 0.00 0.00 0.00 35 1012.2
20260506082230 11 114 14.5 19.3 0.00 0.00 0.00 34 1012.4
20260506081129 11 129 17.7 17.7 0.00 0.00 0.00 33 1012.3
20260506072728 12 88 20.9 27.4 0.00 0.00 0.00 30 1012.6
20260506071630 11 59 19.3 32.2 0.00 0.00 0.00 30 1012.6
20260506062129 10 82 20.9 27.4 0.00 0.00 0.00 33 1013.0
20260506061029 9 70 16.1 19.3 0.00 0.00 0.00 38 1012.9
20260506044227 2 11 1.6 3.2 0.00 0.00 0.00 82 1013.0
20260506043127 1 332 3.2 4.8 0.00 0.00 0.00 81 1012.7
20260506042027 0 2 4.8 6.4 0.00 0.00 0.00 80 1012.8
20260506040927 0 348 3.2 6.4 0.00 0.00 0.00 79 1012.6
20260506035827 0 1 1.6 3.2 0.00 0.00 0.00 78 1012.5
20260506034727 0 1 0.0 3.2 0.00 0.00 0.00 78 1012.5
20260506033627 0 1 0.0 3.2 0.00 0.00 0.00 78 1012.8
20260506032528 0 1 0.0 1.6 0.00 0.00 0.00 78 1012.8
20260506031427 0 1 0.0 3.2 0.00 0.00 0.00 77 1012.6
20260506030327 0 0 0.0 0.0 0.00 0.00 0.00 77 1012.5
20260506025227 0 1 1.6 3.2 0.00 0.00 0.00 76 1012.7
20260506024128 0 0 0.0 0.0 0.00 0.00 0.00 76 1012.7
20260506023028 0 0 0.0 0.0 0.00 0.00 0.00 75 1012.8
20260506021927 0 0 0.0 0.0 0.00 0.00 0.00 75 1012.5
20260506020826 0 135 0.0 3.2 0.00 0.00 0.00 75 1012.7
20260506015727 0 0 0.0 0.0 0.00 0.00 0.00 74 1012.6
20260506014626 0 110 0.0 3.2 0.00 0.00 0.00 74 1012.5
20260506013526 0 46 0.0 3.2 0.00 0.00 0.00 73 1012.5
20260506012426 0 46 0.0 3.2 0.00 0.00 0.00 72 1012.6
20260506011326 1 0 0.0 0.0 0.00 0.00 0.00 72 1012.5
20260506010226 1 0 0.0 0.0 0.00 0.00 0.00 71 1012.3
20260506004027 1 0 0.0 0.0 0.00 0.00 0.00 70 1012.1
20260506002928 1 90 0.0 1.6 0.00 0.00 0.00 70 1012.1
20260506001826 1 0 0.0 0.0 0.00 0.00 0.00 70 1012.2
20260506000727 1 90 0.0 1.6 0.00 0.00 0.00 70 1012.1
20260505235627 1 90 0.0 1.6 0.00 0.00 0.00 70 1012.1
20260505234527 1 90 0.0 1.6 0.00 0.00 0.00 69 1012.1
20260505231226 2 0 0.0 0.0 0.00 0.00 0.00 66 1012.4
20260505230127 2 0 0.0 0.0 0.00 0.00 0.00 65 1012.1
20260505225027 2 0 0.0 0.0 0.00 0.00 0.00 65 1012.2
20260505223926 2 135 0.0 1.6 0.00 0.00 0.00 64 1012.4
20260505222826 3 0 0.0 0.0 0.00 0.00 0.00 64 1012.5
20260505220626 3 0 0.0 0.0 0.00 0.00 0.00 63 1012.3
20260505215525 4 135 0.0 1.6 0.00 0.00 0.00 62 1012.4
20260505213326 5 0 0.0 0.0 0.00 0.00 0.00 61 1012.2
20260505212225 5 135 0.0 1.6 0.00 0.00 0.00 60 1012.1
20260505211125 5 0 0.0 0.0 0.00 0.00 0.00 60 1012.1
20260505204925 6 135 0.0 1.6 0.00 0.00 0.00 56 1011.8
20260505203825 6 10 1.6 3.2 0.00 0.00 0.00 54 1011.8
20260505202726 7 355 1.6 3.2 0.00 0.00 0.00 52 1011.6
20260505201625 7 287 3.2 3.2 0.00 0.00 0.00 44 1011.7
20260505200526 8 266 3.2 4.8 0.00 0.00 0.00 41 1011.5
20260505195426 8 317 3.2 6.4 0.00 0.00 0.00 40 1011.5
20260505192125 10 311 6.4 8.0 0.00 0.00 0.00 35 1011.3
20260505191025 10 310 6.4 6.4 0.00 0.00 0.00 34 1011.0
20260505183725 11 300 4.8 14.5 0.00 0.00 0.00 30 1010.9
20260505182625 11 314 8.0 11.3 0.00 0.00 0.00 30 1010.8
20260505181524 11 306 9.7 12.9 0.00 0.00 0.00 30 1010.8
20260505180424 12 312 12.9 17.7 0.00 0.00 0.00 30 1010.8
20260505175326 12 295 11.3 17.7 0.00 0.00 0.00 26 1010.8
20260505174224 12 305 12.9 19.3 0.00 0.00 0.00 22 1010.5
20260505172024 12 298 11.3 12.9 0.00 0.00 0.00 22 1010.7
20260505170926 13 266 14.5 17.7 0.00 0.00 0.00 22 1010.6
20260505164724 13 238 9.7 17.7 0.00 0.00 0.00 20 1010.5
20260505161424 13 262 14.5 27.4 0.00 0.00 0.00 20 1010.0
20260505160325 14 292 12.9 17.7 0.00 0.00 0.00 20 1010.1
20260505153024 14 295 9.7 16.1 0.00 0.00 0.00 20 1010.1
20260505151924 14 197 8.0 16.1 0.00 0.00 0.00 20 1010.0
20260505140225 14 341 16.1 25.7 0.00 0.00 0.00 20 1010.2
20260505124523 14 295 9.7 12.9 0.00 0.00 0.00 22 1010.2
20260505123423 13 266 16.1 24.1 0.00 0.00 0.00 22 1010.2
20260505122323 13 263 11.3 17.7 0.00 0.00 0.00 22 1010.2
20260505121224 13 211 11.3 16.1 0.00 0.00 0.00 22 1010.4
20260505120123 13 307 14.5 24.1 0.00 0.00 0.00 22 1010.5
20260505115024 13 210 11.3 17.7 0.00 0.00 0.00 24 1010.6
20260505113923 13 270 12.9 19.3 0.00 0.00 0.00 22 1010.4
20260505112823 13 260 12.9 17.7 0.00 0.00 0.00 28 1010.6
20260505110624 13 241 12.9 17.7 0.00 0.00 0.00 30 1010.7